Tracking 31027 objects as of 19-Jul-2025
HD Live streaming from Space Station
objects crossing your sky now

FENGYUN 1C DEB

Track FENGYUN 1C DEB now!
10-day predictions


NORAD ID: 31073
Int'l Code: 1999-025BFT
Perigee: 786.6 km
Apogee: 852.9 km
Inclination: 99.2 °
Period: 101.1 minutes
Semi major axis: 7190 km
RCS: 0.0164 m2 (small)
Launch date: May 10, 1999
Source: People's Republic of China (PRC)
Launch site: Taiyaun Space Center, China (TSC)

Note: This is SATELLITE DEBRIS
Your satellite tracking list
CZ-4C DEB
Track 1 satellite(s)




NASA's NSSDC Master Catalog

Two Line Element Set (TLE):
1 31073U 99025BFT 25199.50966047  .00001662  00000-0  73989-3 0  9996
2 31073  99.2368  41.8705 0046150 345.2456  14.7371 14.23776910949873
Source of the keplerian elements: AFSPC